Regional Weather Roundup
Issued by NWS

Home | Current Version | Previous Version | Text Only | Print | Product List | Glossary On
Versions: 1 2 3 4 5 6 7 8 9 10 11 12 13 14 15 16 17 18 19 20 21 22 23 24 25 26 27 28 29 30 31 32 33 34 35 36 37 38 39 40 41 42 43 44 45 46 47 48 49 50
000
ASUS44 KOUN 270210
RWROK

WEATHER ROUNDUP FOR OKLAHOMA
NATIONAL WEATHER SERVICE NORMAN OK
900 PM CDT THU MAR 26 2015

NOTE: "FAIR" INDICATES FEW OR NO CLOUDS BELOW 12,000 FEET WITH NO
      SIGNIFICANT WEATHER AND/OR OBSTRUCTIONS TO VISIBILITY.

OKZ001>007-009>012-014-015-017-270300-
NORTHWEST OKLAHOMA AND THE PANHANDLE

CITY           SKY/WX    TMP DP  RH WIND       PRES   REMARKS
GAGE           PTCLDY    54  28  36 NW8       30.08R
GUYMON         PTCLDY    55  26  32 W7        30.11R
ENID/WOODRING  PTCLDY    46  34  61 SE6       30.05F
$$

OKZ016-021>023-033>039-044-045-270300-
SOUTHWEST OKLAHOMA

CITY           SKY/WX    TMP DP  RH WIND       PRES   REMARKS
LAWTON/REGL    CLEAR     54  31  41 S6        30.13S
LAWTON/FT SILL CLEAR     54  32  43 S3        30.11S
FREDERICK      CLEAR     51  33  50 S9        30.11S
CLINTON        CLEAR     46  34  62 S10       30.11S
HOBART         CLEAR     46  34  62 S10       30.12S
ALTUS AFB      CLEAR     46  35  65 SE8       30.12S
$$

OKZ018>020-024>031-270300-
CENTRAL OKLAHOMA

CITY           SKY/WX    TMP DP  RH WIND       PRES   REMARKS
OKLAHOMA CITY  PTCLDY    50  32  50 S6        30.10F
OKC/WILEY POST CLEAR     47  34  60 S6        30.10F
OKC/TINKER AFB CLEAR     50  31  47 S5        30.10F
STILLWATER     PTCLDY    49  34  56 S6        30.08F
$$

OKZ008-013-054>072-270300-
NORTHEAST OKLAHOMA

CITY           SKY/WX    TMP DP  RH WIND       PRES   REMARKS
TULSA          PTCLDY    52  29  41 SE3       30.09S
TULSA/JONES    CLEAR     46  36  68 CALM      30.10S
PONCA CITY     MOCLDY    53  29  39 S5        30.05F
BARTLESVILLE   PTCLDY    40  33  76 S3        30.08F
MUSKOGEE       CLEAR     49  30  48 E3        30.12F
$$

OKZ032-040>043-046>053-073>077-270300-
SOUTH CENTRAL/SOUTHEAST OKLAHOMA

CITY           SKY/WX    TMP DP  RH WIND       PRES   REMARKS
ARDMORE/DWNTWN CLEAR     50  28  43 CALM      30.15R
MCALESTER      PTCLDY    46  32  58 CALM      30.13R
$$




USA.gov is the U.S. government's official web portal to all federal, state and local government web resources and services.